Regional Weather Roundup
Issued by NWS Cleveland, OH

Home | Current Version | Previous Version | Text Only | Print | Product List | Glossary On
Versions: 1 2 3 4 5 6 7 8 9 10 11 12 13 14 15 16 17 18 19 20 21 22 23 24 25 26 27 28 29 30 31 32 33 34 35 36 37 38 39 40 41 42 43 44 45 46 47 48 49 50
000
ASUS41 KCLE 020310
RWRCLE
OHIO REGIONAL WEATHER ROUNDUP
NATIONAL WEATHER SERVICE WILMINGTON, OH
1100 PM EDT FRI AUG 01 2014

NOTE: "FAIR" INDICATES FEW OR NO CLOUDS BELOW 12,000 FEET WITH NO
SIGNIFICANT WEATHER AND/OR OBSTRUCTIONS TO VISIBILITY.

OHZ001>008-015>018-024>027-034-035-043-044-020400-
   NORTHWEST OHIO

CITY           SKY/WX    TMP DP  RH WIND       PRES   REMARKS
DEFIANCE       PTCLDY    67  59  75 N3        30.11R
FINDLAY        PTCLDY    74  61  63 E6        30.09S
TOLEDO EXPRESS MOCLDY    68  62  81 CALM      30.10S
TOLEDO METCALF PTCLDY    68  62  81 CALM      30.10S
LIMA           MOCLDY    70  62  76 CALM      30.10S
$$

OHZ009>014-019>023-028>033-038-089-020400-
   NORTHEAST OHIO

CITY           SKY/WX    TMP DP  RH WIND       PRES   REMARKS
CLE-HOPKINS    CLOUDY    71  60  68 CALM      30.13S
CLE-LAKEFRONT  CLOUDY    74  63  68 NE6       30.09F
CUY CO. ARPT   CLOUDY    72  66  83 E7        30.12F
LORAIN-ELYRIA  MOCLDY    72  62  71 CALM      30.12S
ASHTABULA      MOCLDY    66  63  90 SW3       30.14S
AKRON-CANTON   PTCLDY    69  61  75 N5        30.12F
WOOSTER        PTCLDY    65  63  93 CALM      30.12S FOG
MANSFIELD      CLEAR     63  60  90 CALM      30.13R
YOUNGSTOWN     PTCLDY    66  58  75 E7        30.12F
$$

OHZ042-051>053-060>062-070>072-077>081-020400-
  SOUTHWEST OHIO

CITY           SKY/WX    TMP DP  RH WIND       PRES   REMARKS
CINC-COVINGTON PTCLDY    71  59  65 CALM      30.08R
CINC-LUNKEN    CLEAR     65  63  93 CALM      30.07S
HAMILTON       CLOUDY    72  65  78 W5        30.09R THUNDER
DAYTON         PTCLDY    72  63  73 CALM      30.10S
WRIGHT-PAT AFB CLEAR     72  64  77 CALM      30.09R
DAYTON GENERAL MOCLDY    71  63  75 E3        30.08S
WILMINGTON     PTCLDY    66  61  84 CALM      30.09R
$$

OHZ036-037-039>041-045>050-054>059-063>069-073>076-082>088-020400-
  CENTRAL AND SOUTHEAST OHIO

CITY           SKY/WX    TMP DP  RH WIND       PRES   REMARKS
COLUMBUS       PTCLDY    76  62  62 CALM      30.09R
OSU AIRPORT    PTCLDY    69  63  81 NE5       30.10R
BOLTON FIELD   PTCLDY    70  64  80 NE3       30.09S
RICKENBACK AFB PTCLDY    74  59  59 CALM      30.08S
NEWARK         PTCLDY    68  64  87 CALM      30.09S
MARION         PTCLDY    64  60  87 CALM      30.10S
LANCASTER      PTCLDY    67  64  90 CALM      30.09S
ZANESVILLE     PTCLDY    72  63  73 CALM      30.10S
NEW PHILLY     PTCLDY    66  64  93 NW5       30.11S
$$


USA.gov is the U.S. government's official web portal to all federal, state and local government web resources and services.